Previsão horária em Aachen

Hoje, 27 Janeiro, Quarta-feira

Tempo Temperatura Precipitação Vento Pressão Humidade
00:00 -2°C° 0 mm 4 m/s 747 mmHg 78%
01:00 -2°C° 0.1 mm 4 m/s 746 mmHg 83%
02:00 -2°C° 0.1 mm 4 m/s 746 mmHg 87%
03:00 -2°C° 0.1 mm 5 m/s 745 mmHg 92%
04:00 -2°C° 0.4 mm 5 m/s 745 mmHg 93%
05:00 -2°C° 0.4 mm 5 m/s 744 mmHg 94%
06:00 -2°C° 0.4 mm 5 m/s 744 mmHg 96%
07:00 -1°C° 0.2 mm 5 m/s 743 mmHg 94%
08:00 -1°C° 0.2 mm 5 m/s 743 mmHg 92%
09:00 -1°C° 0.2 mm 5 m/s 743 mmHg 90%
10:00 0°C° 0 mm 5 m/s 743 mmHg 91%
11:00 +1°C° 0 mm 5 m/s 743 mmHg 92%
12:00 +2°C° 0 mm 5 m/s 743 mmHg 94%
13:00 +2°C° 0 mm 5 m/s 743 mmHg 94%
14:00 +2°C° 0 mm 5 m/s 743 mmHg 95%
15:00 +3°C° 0 mm 5 m/s 743 mmHg 96%
16:00 +4°C° 0 mm 4 m/s 743 mmHg 96%
17:00 +4°C° 0 mm 4 m/s 743 mmHg 96%
18:00 +4°C° 0 mm 4 m/s 743 mmHg 97%
19:00 +3°C° 0 mm 4 m/s 743 mmHg 96%
20:00 +3°C° 0 mm 4 m/s 743 mmHg 96%
21:00 +3°C° 0 mm 4 m/s 743 mmHg 96%
22:00 +3°C° 0 mm 3 m/s 743 mmHg 97%
23:00 +4°C° 0 mm 3 m/s 743 mmHg 97%

Amanhã, 28 Janeiro, Quinta-feira

Tempo Temperatura Precipitação Vento Pressão Humidade
00:00 +4°C° 0 mm 3 m/s 743 mmHg 97%
01:00 +4°C° 0 mm 3 m/s 742 mmHg 97%
02:00 +5°C° 0 mm 2 m/s 742 mmHg 97%
03:00 +5°C° 0 mm 2 m/s 741 mmHg 97%
04:00 +5°C° 1 mm 2 m/s 740 mmHg 97%
05:00 +5°C° 1 mm 2 m/s 739 mmHg 98%
06:00 +5°C° 1 mm 2 m/s 739 mmHg 98%
07:00 +5°C° 2.3 mm 3 m/s 738 mmHg 97%
08:00 +6°C° 2.3 mm 4 m/s 737 mmHg 97%
09:00 +6°C° 2.3 mm 4 m/s 736 mmHg 97%
10:00 +7°C° 1.6 mm 6 m/s 736 mmHg 96%
11:00 +8°C° 1.6 mm 7 m/s 735 mmHg 95%
12:00 +9°C° 1.6 mm 8 m/s 735 mmHg 94%
13:00 +9°C° 0.9 mm 8 m/s 735 mmHg 94%
14:00 +9°C° 0.9 mm 8 m/s 735 mmHg 94%
15:00 +9°C° 0.9 mm 8 m/s 735 mmHg 94%
16:00 +9°C° 0.3 mm 8 m/s 735 mmHg 92%
17:00 +9°C° 0.3 mm 8 m/s 736 mmHg 90%
18:00 +7°C° 0.3 mm 8 m/s 736 mmHg 88%
19:00 +8°C° 0.1 mm 7 m/s 736 mmHg 88%
20:00 +8°C° 0.1 mm 7 m/s 736 mmHg 88%
21:00 +8°C° 0.1 mm 6 m/s 737 mmHg 88%
22:00 +7°C° 0 mm 6 m/s 736 mmHg 90%
23:00 +7°C° 0 mm 5 m/s 736 mmHg 91%

Depois de amanhã, 29 Janeiro, Sexta-feira

Tempo Temperatura Precipitação Vento Pressão Humidade
00:00 +7°C° 0 mm 4 m/s 736 mmHg 93%
01:00 +7°C° 0.1 mm 4 m/s 735 mmHg 93%
02:00 +7°C° 0.1 mm 4 m/s 735 mmHg 93%
03:00 +7°C° 0.1 mm 4 m/s 734 mmHg 93%
04:00 +7°C° 1.3 mm 5 m/s 733 mmHg 93%
05:00 +8°C° 1.3 mm 5 m/s 732 mmHg 94%
06:00 +8°C° 1.3 mm 5 m/s 732 mmHg 94%
07:00 +8°C° 0.2 mm 6 m/s 732 mmHg 92%
08:00 +8°C° 0.2 mm 7 m/s 732 mmHg 90%
09:00 +7°C° 0.2 mm 8 m/s 732 mmHg 89%
10:00 +6°C° 0 mm 8 m/s 733 mmHg 88%
11:00 +6°C° 0 mm 8 m/s 733 mmHg 87%
12:00 +6°C° 0 mm 8 m/s 734 mmHg 86%
13:00 +6°C° 0.2 mm 7 m/s 734 mmHg 84%
14:00 +6°C° 0.2 mm 7 m/s 734 mmHg 81%
15:00 +6°C° 0.2 mm 7 m/s 734 mmHg 79%
16:00 +6°C° 0.5 mm 7 m/s 734 mmHg 82%
17:00 +5°C° 0.5 mm 6 m/s 734 mmHg 85%
18:00 +5°C° 0.5 mm 6 m/s 734 mmHg 88%
19:00 +5°C° 0.4 mm 6 m/s 734 mmHg 88%
20:00 +5°C° 0.4 mm 6 m/s 734 mmHg 89%
21:00 +5°C° 0.4 mm 6 m/s 734 mmHg 89%
22:00 +5°C° 0.2 mm 6 m/s 734 mmHg 90%
23:00 +5°C° 0.2 mm 6 m/s 734 mmHg 90%

30 Janeiro, Sábado

Tempo Temperatura Precipitação Vento Pressão Humidade
00:00 +6°C° 0.2 mm 5 m/s 734 mmHg 91%
01:00 +5°C° 0.1 mm 5 m/s 734 mmHg 91%
02:00 +5°C° 0.1 mm 5 m/s 734 mmHg 92%
03:00 +5°C° 0.1 mm 4 m/s 733 mmHg 93%
04:00 +4°C° 0.2 mm 4 m/s 733 mmHg 93%
05:00 +4°C° 0.2 mm 3 m/s 733 mmHg 93%
06:00 +3°C° 0.2 mm 3 m/s 733 mmHg 93%
07:00 +2°C° 0.1 mm 3 m/s 733 mmHg 94%
08:00 +2°C° 0.1 mm 3 m/s 733 mmHg 94%
09:00 +1°C° 0.1 mm 3 m/s 733 mmHg 94%
10:00 +1°C° 0 mm 3 m/s 733 mmHg 92%
11:00 0°C° 0 mm 4 m/s 733 mmHg 90%
12:00 0°C° 0 mm 4 m/s 732 mmHg 88%
13:00 0°C° 0 mm 4 m/s 732 mmHg 87%
14:00 +1°C° 0 mm 4 m/s 732 mmHg 85%
15:00 +1°C° 0 mm 4 m/s 732 mmHg 84%
16:00 0°C° 0.1 mm 5 m/s 733 mmHg 84%
17:00 0°C° 0.1 mm 5 m/s 734 mmHg 84%
18:00 -2°C° 0.1 mm 6 m/s 734 mmHg 84%
19:00 -1°C° 0 mm 5 m/s 735 mmHg 81%
20:00 -2°C° 0 mm 5 m/s 735 mmHg 78%
21:00 -4°C° 0 mm 5 m/s 736 mmHg 75%
22:00 -3°C° 0 mm 4 m/s 737 mmHg 74%
23:00 -4°C° 0 mm 4 m/s 737 mmHg 73%

31 Janeiro, Domingo

Tempo Temperatura Precipitação Vento Pressão Humidade
00:00 -4°C° 0 mm 4 m/s 738 mmHg 72%
01:00 -4°C° 0 mm 3 m/s 738 mmHg 72%
02:00 -5°C° 0 mm 3 m/s 738 mmHg 72%
03:00 -4°C° 0 mm 2 m/s 738 mmHg 72%
04:00 -4°C° 0 mm 2 m/s 739 mmHg 70%
05:00 -4°C° 0 mm 2 m/s 739 mmHg 68%
06:00 -4°C° 0 mm 2 m/s 739 mmHg 66%
07:00 -3°C° 0 mm 2 m/s 740 mmHg 61%
08:00 -2°C° 0 mm 2 m/s 740 mmHg 55%
09:00 -1°C° 0 mm 2 m/s 740 mmHg 50%
10:00 +1°C° 0 mm 2 m/s 740 mmHg 45%
11:00 +1°C° 0 mm 3 m/s 739 mmHg 41%
12:00 +2°C° 0 mm 3 m/s 739 mmHg 36%
13:00 +2°C° 0 mm 3 m/s 739 mmHg 39%
14:00 +2°C° 0 mm 3 m/s 738 mmHg 42%
15:00 +2°C° 0 mm 3 m/s 737 mmHg 44%
16:00 +1°C° 0 mm 3 m/s 737 mmHg 48%
17:00 0°C° 0 mm 3 m/s 737 mmHg 51%
18:00 -1°C° 0 mm 3 m/s 736 mmHg 55%
19:00 -2°C° 0 mm 4 m/s 736 mmHg 55%
20:00 -2°C° 0 mm 4 m/s 736 mmHg 56%
21:00 -2°C° 0 mm 4 m/s 736 mmHg 57%
22:00 -2°C° 0 mm 4 m/s 735 mmHg 61%
23:00 -1°C° 0 mm 3 m/s 735 mmHg 65%

1 Fevereiro, Segunda-feira

Tempo Temperatura Precipitação Vento Pressão Humidade
00:00 -1°C° 0 mm 3 m/s 735 mmHg 68%
01:00 -1°C° 0 mm 3 m/s 735 mmHg 72%
02:00 -1°C° 0 mm 3 m/s 734 mmHg 76%
03:00 -1°C° 0 mm 2 m/s 734 mmHg 80%
04:00 -1°C° 0 mm 2 m/s 734 mmHg 82%
05:00 +1°C° 0 mm 2 m/s 735 mmHg 84%
06:00 +1°C° 0 mm 2 m/s 735 mmHg 86%
07:00 +2°C° 0 mm 2 m/s 735 mmHg 86%
08:00 +3°C° 0 mm 2 m/s 735 mmHg 87%
09:00 +3°C° 0 mm 2 m/s 735 mmHg 87%
10:00 +4°C° 0 mm 2 m/s 735 mmHg 87%
11:00 +5°C° 0 mm 2 m/s 735 mmHg 86%
12:00 +4°C° 0 mm 3 m/s 735 mmHg 86%
13:00 +4°C° 0.4 mm 3 m/s 735 mmHg 88%
14:00 +4°C° 0.4 mm 3 m/s 735 mmHg 90%
15:00 +4°C° 0.4 mm 4 m/s 735 mmHg 93%
16:00 +4°C° 0.3 mm 4 m/s 735 mmHg 93%
17:00 +4°C° 0.3 mm 4 m/s 735 mmHg 93%
18:00 +5°C° 0.3 mm 5 m/s 735 mmHg 93%
19:00 +4°C° 0 mm 4 m/s 735 mmHg 93%
20:00 +4°C° 0 mm 4 m/s 735 mmHg 93%
21:00 +4°C° 0 mm 4 m/s 735 mmHg 93%
22:00 +5°C° 0.1 mm 4 m/s 734 mmHg 93%
23:00 +5°C° 0.1 mm 4 m/s 734 mmHg 93%
Mostrar mais